Погода в Пунта-Кана

Доминиканская Республика     18°33′38″N   68°21′53″W
темп.,
°C
ветер,
м/с
пор.,
м/с
влажн.,
%
обл.,
%
осадки,
мм/ч
давл.,
гПа
погр.,
м
26 июля, пн
пн2623:00+27всв567831 0.1 1016699
02:00+27юв35775 0.1 1015667
05:00+27вюв557916 0.0 1015674
08:00+28св557874 0.0 1016679
11:00+28в357382 0.0 1017599
14:00+28в347389 0.0 1016512
17:00+28в3474100 0.0 1015597
20:00+28всв4581100 0.5 1016465
27 июля, вт
вт2723:00+28всв8981100 1.1 1017668
02:00+27в8979100 1.1 1016801
05:00+27всв7975100 0.0 1016943
08:00+28всв797383 0.0 10171049
11:00+28всв897450 0.0 10171076
14:00+28всв78737 0.2 1016948
17:00+28св897742 0.0 10151017
20:00+28всв810765 0.4 10161032
28 июля, ср
ср2823:00+28всв897692 0.1 10171073
02:00+27всв897599 0.4 10151027
05:00+27в89745 0.1 1015982
08:00+27в79765 0.4 1016973
11:00+27в78750 0.6 1016874
14:00+28в45715 0.7 1015863
17:00+27всв55733 0.8 1015641
20:00+26юв34769 2.9 1016323
29 июля, чт
чт2923:00+27св24743 0.8 1016460
02:00+27юв577810 1.6 1015663
05:00+27вюв56775 0.4 1015644
08:00+27вюв56735 0.7 1017889
11:00+28вюв66727 0.0 1018924
14:00+28вюв45711 0.0 1017895
17:00+28вюв56700 0.0 10161080
20:00+28юв687770 0.1 1018864
30 июля, пт
пт3023:00+28всв5674100 0.4 1019805
02:00+27вюв4576100 0.4 1017777
05:00+27в567686 0.1 1017632
08:00+28всв7877100 0.1 1018883
11:00+28вюв677599 0.0 1019861
14:00+28в3473100 0.1 1018608
17:00+28в667582 0.1 1017768
20:00+28всв557798 0.1 1018653